ECMWFFLT2_500_spd_000.txt.gz
Wind_Speed
20 19 19 18 17 16 15 14 12 11 11 12 12 13 16 15 14 17 19 17 18 19 17 16 15 14 14 14 15 17 18 19 21 23 25 28 29 30 29 28 28 28 28 28 27 26 26 27 28 29 29 29 29 29 29 29 29 30 30 30 30 30 30
20 20 20 20 19 17 15 13 12 11 11 12 11 10 13 13 12 16 19 15 16 17 16 17 16 14 15 15 14 15 16 17 18 20 23 27 29 30 30 29 30 30 30 29 28 27 27 28 29 30 30 30 30 30 29 30 30 30 30 31 32 32 32
21 21 21 22 21 19 15 14 13 11 10 10 11 11 10 11 11 14 17 15 14 15 15 17 18 15 16 16 15 16 17 17 17 18 21 24 27 29 29 30 31 31 30 29 29 28 28 29 30 30 31 31 31 30 30 31 31 31 31 32 33 34 34
24 24 25 24 24 22 18 17 15 14 13 11 13 13 10 10 11 11 14 13 12 12 14 16 18 18 18 18 17 18 18 18 18 19 20 22 25 27 28 30 31 31 31 30 29 29 29 30 30 31 32 32 31 31 31 32 32 32 31 32 34 35 35
27 28 28 25 24 23 20 18 17 16 16 15 15 15 11 10 9 10 13 10 8 12 14 15 18 19 19 19 19 19 19 19 19 19 20 21 23 25 26 28 29 30 31 30 30 30 30 30 31 31 32 33 32 31 31 32 32 32 32 33 35 36 36
27 29 30 26 25 24 19 18 17 16 17 17 15 15 14 12 9 10 12 9 9 13 13 13 17 17 17 18 18 19 19 19 19 20 20 21 22 24 25 26 28 30 30 30 30 30 30 31 31 32 33 33 32 31 32 33 33 33 33 33 35 36 37
29 30 30 27 27 25 20 19 17 16 17 16 13 14 17 16 11 10 12 9 9 12 11 11 15 15 16 17 17 18 20 19 20 20 20 21 22 23 25 27 28 29 30 30 31 31 31 31 32 32 33 34 33 32 33 34 35 34 33 34 35 37 38
32 32 29 27 29 28 25 23 21 19 19 16 15 16 17 16 11 10 11 9 9 12 11 11 14 15 16 17 16 17 19 19 20 21 21 22 22 23 25 27 29 30 31 32 31 31 32 32 32 33 34 34 34 34 35 36 36 35 34 35 36 37 38
35 34 31 31 32 29 26 25 23 22 22 18 17 19 19 18 13 11 12 10 10 15 15 14 15 15 16 17 18 18 19 20 21 23 24 24 25 25 26 27 29 30 32 32 32 32 32 32 33 34 35 35 35 36 37 38 38 36 35 35 36 37 38
37 35 34 34 31 26 24 24 20 19 21 20 19 20 22 21 18 16 15 12 12 17 18 17 17 16 17 19 20 21 22 22 23 25 26 26 26 27 28 29 30 31 32 32 32 32 32 33 34 35 35 36 37 38 39 39 39 38 36 36 37 38 39
34 32 33 31 26 24 23 21 19 18 20 20 21 22 24 23 21 20 19 17 15 16 19 22 21 18 19 21 22 23 24 25 26 27 27 28 28 27 28 29 31 32 33 34 34 34 34 35 36 36 36 37 39 40 40 41 40 39 38 37 38 38 39
31 30 30 28 24 24 24 22 23 23 22 22 23 25 26 24 23 23 22 22 20 17 18 24 25 22 21 22 23 24 25 26 27 28 28 30 30 29 29 29 31 32 33 34 35 36 36 37 36 37 38 39 40 41 41 42 41 40 39 38 39 39 40
31 30 30 28 27 28 27 28 29 28 27 27 27 27 27 26 25 26 26 28 25 20 21 25 27 26 24 24 25 26 27 27 28 29 29 30 31 31 31 31 32 33 34 35 36 36 37 38 38 38 39 40 41 42 42 42 41 40 40 39 40 41 42
31 32 32 32 31 32 31 33 34 33 32 32 30 30 30 28 27 29 30 32 30 26 26 29 29 28 28 28 27 28 29 29 29 30 30 31 31 32 33 33 34 35 35 36 37 37 38 39 39 39 40 41 42 42 43 43 42 40 39 40 41 42 43
31 31 32 33 34 34 34 35 36 35 34 33 33 34 33 31 32 33 35 35 34 33 33 31 29 30 31 30 29 29 29 30 30 30 30 31 32 32 33 34 35 36 37 38 38 38 39 40 40 41 42 42 42 43 44 43 41 39 39 40 43 44 45
33 31 31 33 34 35 37 37 37 36 36 35 35 35 35 35 36 37 38 38 38 38 38 34 31 31 32 31 31 30 30 30 31 31 31 32 32 33 33 35 36 37 37 37 38 39 40 41 41 42 43 43 42 43 44 42 40 39 40 42 44 46 46
35 34 32 32 34 36 39 39 38 37 37 37 37 36 36 37 38 39 40 39 39 41 42 40 37 34 33 31 31 31 30 30 31 32 32 33 33 34 34 35 37 38 37 37 39 40 41 42 42 43 43 42 42 43 42 41 40 41 42 44 46 47 47
38 38 34 33 36 39 40 40 38 37 37 37 37 37 37 38 39 40 40 40 41 43 43 43 42 38 34 31 30 31 31 31 31 32 32 33 34 35 35 35 36 37 37 38 39 40 41 42 43 42 41 41 42 42 41 41 43 44 44 46 47 48 48
39 38 34 34 38 39 40 40 38 36 36 36 37 38 39 39 40 41 40 41 43 44 44 44 43 39 36 32 30 31 31 31 31 32 32 33 34 34 35 35 35 35 36 37 39 40 41 41 41 41 41 42 42 41 41 43 45 46 47 48 48 48 48
39 37 35 37 38 38 39 39 38 37 37 38 39 40 41 42 43 42 41 43 45 45 44 44 42 39 36 32 30 30 30 30 30 30 31 32 32 33 33 33 34 34 35 36 38 39 39 39 39 40 41 41 41 41 43 45 46 47 48 50 49 49 49
39 39 39 40 40 41 42 42 41 41 41 41 42 42 43 44 45 44 44 45 45 44 44 42 39 37 34 30 29 29 29 28 28 29 30 30 31 31 31 32 33 33 34 36 37 37 38 38 39 40 41 41 41 42 44 46 47 48 50 51 50 49 49
39 40 40 38 39 40 40 41 42 43 43 43 44 44 45 45 45 45 45 45 44 42 41 39 37 35 32 29 30 29 28 28 28 28 29 29 30 30 31 32 32 33 34 35 36 36 37 38 40 40 40 41 42 44 45 46 47 49 50 51 50 49 49
42 42 41 39 40 40 39 40 41 41 41 42 43 44 44 43 43 42 41 40 40 39 38 37 35 33 31 30 32 31 28 28 28 28 29 29 30 31 32 32 33 33 34 35 35 36 37 38 40 40 41 42 43 44 45 46 47 49 50 50 49 48 48
46 44 42 42 42 41 41 41 41 41 43 43 42 42 41 41 43 41 37 36 37 37 36 36 35 33 32 32 33 32 30 30 30 30 31 31 32 33 33 33 34 35 35 36 37 38 38 39 40 41 42 43 44 44 44 45 46 48 49 48 48 47 47
48 47 45 44 41 41 42 42 42 42 43 42 42 42 40 41 43 41 36 34 35 35 35 35 35 35 34 33 34 34 34 34 34 33 33 34 34 34 34 34 35 36 37 37 38 39 40 40 41 41 42 43 43 44 44 45 46 47 47 47 47 46 45
44 44 43 42 41 43 43 42 42 42 41 40 42 42 40 40 41 40 37 35 34 34 35 36 36 36 36 36 36 36 36 36 35 35 35 36 36 36 36 37 37 38 38 39 39 40 40 40 40 41 41 42 44 45 45 46 47 47 47 48 48 47 46
42 42 41 41 44 46 44 41 42 42 41 41 41 40 40 40 40 39 37 35 34 34 35 36 36 36 36 37 37 37 37 37 37 37 37 38 38 38 38 39 39 39 39 39 40 40 40 39 40 40 41 43 44 45 46 47 48 48 48 49 49 48 46
41 41 42 43 45 46 44 42 43 43 42 42 42 40 40 40 39 38 38 37 35 35 35 36 37 37 37 38 39 38 38 38 38 39 39 39 39 39 40 40 40 40 40 40 40 39 39 39 39 40 41 43 44 45 45 46 47 47 48 48 48 47 46
39 39 41 43 43 43 43 43 44 43 42 43 42 42 41 40 40 39 39 38 37 36 37 37 38 38 39 39 40 40 39 39 39 40 40 40 40 41 41 41 41 41 40 40 40 39 39 39 40 40 42 43 44 45 45 45 46 46 47 46 46 46 45
42 42 43 44 43 43 43 44 44 43 43 43 43 43 42 41 40 40 40 39 38 38 39 39 40 40 40 40 41 41 40 39 39 40 40 41 41 42 42 42 41 41 41 40 39 39 40 40 41 42 43 44 44 45 46 46 46 46 46 46 45 44 44
42 44 45 44 44 45 45 45 46 46 45 44 43 43 43 42 41 41 41 40 40 40 41 41 41 41 41 40 40 40 40 40 39 39 40 40 41 41 42 42 42 41 41 40 40 40 41 42 42 43 44 45 45 45 46 47 47 47 46 46 44 44 44
42 44 44 43 43 45 46 46 46 46 45 44 43 43 43 43 43 42 42 42 42 42 42 42 41 41 40 39 39 39 38 38 37 38 38 38 39 41 42 43 43 42 42 41 41 42 43 44 44 44 45 45 45 45 46 47 47 47 46 45 44 44 44
43 45 44 43 44 47 47 46 46 46 45 44 44 44 44 44 44 44 44 44 44 43 42 41 40 39 38 38 37 36 35 35 36 37 39 39 40 42 43 43 43 43 43 43 44 45 45 45 45 45 45 45 45 45 46 47 47 46 45 43 43 43 43
43 44 42 41 44 46 45 44 45 45 45 44 44 45 45 44 44 45 44 44 44 43 41 40 38 37 35 35 35 35 35 36 38 39 41 42 42 43 43 43 42 43 45 46 47 47 47 46 46 45 45 45 46 46 47 47 47 45 43 42 42 42 42
44 43 40 39 42 44 44 45 46 46 46 46 46 46 46 45 45 45 45 44 43 41 40 39 37 34 33 34 36 38 38 39 40 42 44 45 45 45 46 44 43 45 47 49 50 50 48 47 47 46 46 46 46 47 48 48 46 44 43 42 42 42 41
47 46 45 44 46 47 47 47 47 48 48 48 47 47 47 46 45 45 44 43 42 41 40 38 36 34 34 36 39 40 40 41 43 45 46 46 47 48 48 46 45 47 50 52 52 50 49 48 48 47 47 47 47 47 48 48 46 43 42 42 41 41 40
49 48 47 47 47 48 48 48 48 48 48 47 47 46 46 46 45 44 43 42 42 42 40 38 37 36 37 38 40 42 43 44 46 47 47 47 48 49 49 49 50 52 53 53 51 50 50 49 49 48 48 48 48 48 48 46 44 42 41 41 40 40 39

ECMWFFLT2_500_spd_006.txt.gz
Wind_Speed
32 27 27 22 25 23 21 20 20 22 19 17 18 17 17 15 15 18 16 15 18 17 17 17 20 23 21 21 24 25 29 33 31 29 28 27 26 25 24 22 21 20 18 19 19 18 20 23 24 25 25 27 28 29 29 30 31 30 28 28 28 25 23
25 24 26 23 22 23 21 19 13 19 21 18 18 19 20 18 15 17 16 13 16 19 18 15 17 22 18 18 22 26 31 34 32 29 28 27 25 25 27 24 21 20 18 17 18 18 20 23 25 25 25 25 26 26 27 29 30 29 27 28 28 26 24
20 22 25 27 23 26 26 15 11 13 17 19 23 26 25 20 15 15 15 15 17 17 18 19 21 23 20 18 18 18 22 27 28 28 27 28 25 23 27 25 19 19 19 17 18 18 19 21 24 25 23 22 23 24 26 27 28 27 26 28 29 26 25
18 22 26 28 27 28 30 23 16 17 19 23 26 25 22 19 14 13 11 12 14 12 14 19 21 23 22 17 14 15 17 21 25 26 24 25 25 22 24 23 18 17 19 18 18 18 18 20 23 23 22 21 22 24 27 28 28 26 27 29 30 28 26
22 25 27 25 27 27 28 29 22 15 16 19 20 18 16 17 16 14 11 9 14 17 18 20 22 25 27 21 18 23 26 21 21 26 24 23 25 24 23 23 20 17 17 17 18 18 18 20 21 21 21 21 23 26 27 29 29 27 28 30 30 29 27
26 27 28 23 25 24 24 27 25 19 16 18 19 17 17 17 16 15 12 10 17 23 22 24 27 27 24 22 24 28 28 21 18 22 24 22 24 24 23 24 23 17 15 17 19 19 20 21 20 21 23 23 25 26 27 29 30 28 29 30 31 30 29
22 25 27 24 25 27 25 27 26 23 21 21 21 18 18 18 13 13 13 14 20 27 25 27 31 29 25 27 31 31 32 32 24 20 21 21 22 22 21 23 24 20 17 19 21 21 22 24 22 22 23 24 26 27 27 29 30 30 30 30 30 32 32
18 22 27 25 25 29 29 29 29 25 21 22 21 19 20 19 15 16 18 17 22 30 30 30 31 29 27 31 35 33 33 34 27 20 21 20 20 21 20 22 24 24 23 21 23 25 25 26 26 24 23 25 27 28 28 29 30 31 31 30 31 32 33
22 25 29 24 24 29 30 29 29 27 20 20 21 22 25 22 19 21 20 18 24 31 32 30 29 27 27 29 32 32 31 30 25 24 24 22 23 23 23 24 25 26 26 25 26 27 26 27 28 26 26 26 26 28 29 30 31 31 30 31 32 32 33
28 28 29 24 23 29 28 27 28 27 23 22 22 22 26 26 22 23 21 20 27 31 30 32 32 31 31 30 31 32 32 29 22 21 23 25 27 28 28 29 28 27 28 27 27 29 29 29 29 28 28 27 27 29 30 32 33 31 29 31 33 34 33
30 26 23 20 21 26 28 25 30 32 26 25 26 26 28 28 27 27 25 23 27 29 30 32 32 32 31 27 27 29 31 30 26 24 24 24 27 31 33 32 30 29 30 29 30 32 32 32 32 30 29 28 29 30 32 33 33 31 31 31 33 34 32
32 29 23 20 19 25 28 26 26 31 31 28 28 29 29 29 30 31 29 27 27 28 30 31 28 28 26 22 23 24 22 25 29 29 28 26 26 29 33 34 32 32 33 32 32 33 34 34 32 31 30 30 31 32 33 34 32 32 33 33 33 33 32
32 33 31 28 24 23 27 27 24 26 30 29 30 30 29 30 33 33 30 30 29 29 31 29 24 24 23 22 26 25 20 22 27 29 30 31 30 29 31 36 37 36 36 35 33 33 34 34 32 30 30 32 33 34 35 34 33 34 35 33 32 32 33
33 29 29 33 29 24 26 28 25 24 26 27 30 31 30 31 33 33 32 33 34 34 33 31 28 29 30 29 30 27 23 24 28 28 28 31 35 35 33 35 39 40 39 37 34 33 33 33 33 31 31 33 35 35 35 34 34 36 35 32 31 32 35
29 24 25 31 34 30 28 28 27 25 25 28 31 30 29 29 30 31 32 35 39 38 35 35 36 37 38 36 32 26 24 26 28 28 29 30 34 38 39 37 39 40 40 39 35 32 32 33 33 32 32 34 35 33 34 35 35 36 34 31 31 34 38
30 31 31 32 31 30 30 30 29 27 28 31 31 30 29 29 30 33 36 39 40 37 34 36 36 37 39 37 33 30 29 30 30 29 30 32 33 36 40 41 40 39 39 39 36 34 34 35 36 34 32 33 33 32 33 36 37 36 34 32 34 38 40
33 35 33 28 29 33 35 32 28 30 32 30 29 28 28 30 33 36 39 41 40 38 37 38 36 36 38 36 32 31 30 31 32 32 33 35 34 34 35 39 40 39 36 36 35 34 33 34 38 38 31 29 31 32 34 36 36 34 33 35 39 40 41
37 35 33 35 40 43 39 33 33 37 36 30 29 30 28 30 35 38 40 43 43 42 42 42 40 37 34 31 30 31 32 35 37 37 36 35 34 33 34 35 37 37 34 32 33 33 30 29 32 35 31 30 33 33 36 38 35 32 33 37 40 40 40
41 38 37 43 47 44 41 41 42 43 39 31 30 32 31 33 35 37 42 48 47 45 44 43 43 38 34 34 33 31 34 39 40 39 38 35 33 33 32 31 32 33 31 29 30 30 28 26 27 30 32 34 36 37 39 38 34 32 34 37 38 39 40
42 42 41 41 40 39 44 47 41 38 39 35 33 35 37 37 35 35 41 47 45 42 42 44 43 40 40 40 35 31 36 41 40 39 39 35 31 28 27 26 27 28 27 26 27 27 28 29 30 31 32 36 38 39 40 38 34 35 37 38 39 40 40
39 42 40 37 35 35 41 45 40 38 40 39 38 40 40 40 41 41 42 44 40 35 36 40 41 41 43 40 34 33 41 44 40 37 36 34 30 27 26 26 26 26 26 27 26 26 29 32 33 33 34 36 37 37 37 34 34 37 39 39 40 41 40
35 38 37 34 34 34 34 37 38 38 38 36 36 38 37 40 45 46 43 44 43 40 39 40 41 42 42 38 34 36 40 41 39 35 31 31 31 29 29 29 28 27 27 28 28 29 32 34 35 36 35 33 33 34 33 31 33 36 37 38 40 40 41
35 35 34 34 35 34 30 30 31 33 34 34 35 37 37 39 42 43 41 42 44 43 43 42 40 39 37 33 31 34 34 34 37 35 31 31 33 32 32 32 31 29 29 29 30 30 31 34 37 38 34 32 33 33 30 30 33 34 34 36 39 40 41
41 39 37 36 35 33 31 30 29 28 29 29 31 35 37 38 38 38 37 38 40 41 40 40 37 35 34 29 28 32 32 31 35 38 34 32 34 34 34 33 32 31 31 31 32 31 33 36 38 37 35 33 32 30 30 31 33 33 34 38 41 42 42
43 42 41 41 41 40 38 36 32 28 25 26 29 31 33 34 34 34 32 32 35 36 35 35 34 33 34 32 29 32 33 30 34 39 37 33 33 35 36 35 33 32 33 34 34 33 36 37 36 35 35 32 30 30 32 33 32 34 38 41 44 43 42
42 40 40 41 43 45 42 38 35 31 28 29 33 34 33 34 35 35 33 31 33 33 33 34 33 33 35 35 32 33 36 34 35 38 37 34 35 37 38 37 35 34 35 37 36 36 37 37 35 33 31 30 29 31 32 31 32 36 40 42 43 42 41
40 40 40 39 42 46 44 39 37 36 35 35 37 38 38 38 37 37 37 36 35 34 34 34 33 32 34 35 33 33 37 38 37 36 37 38 39 40 40 38 37 35 34 34 35 35 33 32 31 30 29 29 30 31 31 32 35 37 39 41 42 41 41
37 40 41 41 43 45 45 43 42 43 42 40 40 40 40 40 40 41 41 41 40 38 37 36 35 34 35 36 35 33 36 39 40 38 38 40 41 43 43 41 38 34 32 33 34 34 31 29 31 32 30 30 31 31 33 35 37 38 40 41 41 41 42
39 39 41 42 42 40 40 40 41 43 44 44 44 45 43 41 40 39 39 40 40 40 40 40 38 37 37 39 38 36 36 40 42 41 39 41 44 45 45 44 39 33 32 36 37 35 34 34 35 33 30 31 32 33 35 37 38 39 40 41 41 41 41
40 38 38 40 42 41 39 39 39 40 43 45 47 46 44 42 41 40 40 41 41 41 41 41 39 39 39 40 39 36 37 40 43 43 44 44 43 44 46 45 38 32 33 37 37 35 35 35 35 33 33 33 34 34 35 37 38 40 40 41 43 44 43
42 41 40 40 41 41 42 44 45 43 41 40 39 38 38 39 40 41 42 42 41 40 39 40 41 39 39 40 39 38 40 42 42 45 47 45 43 45 46 42 37 32 35 37 36 35 36 36 36 36 36 34 33 35 37 38 39 40 41 42 44 46 46
43 44 44 45 45 44 44 46 47 45 43 41 38 36 36 37 38 39 41 42 42 40 40 41 42 40 41 44 43 42 42 43 42 44 45 45 43 43 41 38 36 36 38 36 35 36 37 37 37 36 34 33 35 39 42 42 42 44 45 46 48 50 50
41 42 42 43 44 45 46 45 44 44 44 42 40 39 39 38 38 38 40 41 41 41 42 43 43 43 44 45 44 43 43 43 43 42 42 42 39 36 36 37 39 40 38 36 36 37 37 38 38 36 35 36 40 44 46 45 46 47 48 49 51 52 53
35 34 36 39 40 42 44 42 40 39 38 37 37 38 39 39 39 40 41 41 41 42 43 44 43 44 45 44 43 43 42 42 42 42 42 41 38 37 39 41 42 41 40 40 40 40 40 41 39 36 36 38 42 45 47 48 48 49 49 51 53 54 56
36 32 32 36 38 38 39 38 37 36 36 36 38 39 40 40 41 41 41 41 41 42 44 44 43 44 46 45 43 43 42 41 43 45 43 42 41 40 41 42 42 43 43 42 41 40 41 41 39 38 39 42 44 47 48 49 50 51 53 54 55 55 55
42 39 37 37 37 36 37 37 38 39 40 40 40 41 41 41 41 40 40 41 43 44 45 44 43 43 45 46 44 44 44 44 46 46 45 43 42 42 42 42 43 42 41 41 41 42 43 42 40 40 43 46 46 48 49 50 51 53 54 54 53 53 54
43 41 39 38 37 37 37 38 39 41 43 44 42 41 40 39 40 41 41 42 43 45 45 45 43 43 45 47 46 46 47 47 46 45 44 43 42 42 43 43 42 41 41 42 44 46 45 43 41 43 46 47 47 49 51 51 51 52 52 52 52 53 54

ECMWFFLT2_500_spd_009.txt.gz
Wind_Speed
26 22 23 24 23 20 22 28 34 32 26 22 20 20 20 19 17 17 17 17 17 19 20 20 23 25 24 25 28 30 29 29 31 33 32 29 28 28 26 22 18 16 15 16 16 17 18 19 20 20 20 20 21 22 23 22 22 22 23 24 25 24 23
26 22 25 25 25 26 27 33 37 31 23 22 23 22 24 23 20 19 17 16 17 21 23 23 23 24 24 22 23 26 28 30 31 35 37 33 31 31 28 25 23 18 16 16 16 17 19 20 20 20 19 19 20 21 21 20 19 20 22 24 25 24 23
23 22 22 27 26 25 28 33 31 24 23 29 27 24 25 23 20 19 17 15 16 19 21 24 23 22 20 17 17 22 26 28 30 31 32 29 29 31 30 28 24 19 16 16 16 18 19 19 20 20 19 18 19 20 20 20 18 19 22 25 26 25 24
21 23 21 31 31 25 28 31 25 19 20 25 24 22 25 26 24 23 19 15 16 19 20 24 25 22 21 19 21 26 27 27 27 27 26 26 25 23 25 26 24 19 16 15 15 17 19 19 19 20 18 18 19 19 20 20 20 20 23 25 27 26 24
26 30 24 31 35 30 32 30 25 23 22 19 21 23 24 25 25 26 21 18 21 21 19 23 25 24 24 23 25 27 26 26 29 30 29 29 26 21 20 23 23 21 17 15 16 17 18 19 20 21 20 19 19 20 21 22 22 22 23 25 26 26 24
31 32 28 27 31 32 33 29 30 30 24 19 22 25 25 25 25 24 22 21 24 22 19 21 24 24 24 24 26 27 27 30 34 35 32 29 28 26 23 21 21 21 19 17 17 17 18 20 22 23 23 22 21 22 23 25 24 24 24 25 26 25 24
30 28 26 26 25 27 33 33 35 37 29 20 19 21 22 23 23 23 22 23 25 23 21 22 23 24 25 26 27 27 29 34 37 36 33 30 28 29 27 21 18 19 18 17 17 18 20 23 25 25 25 25 23 23 25 27 27 26 25 26 26 26 26
28 23 22 25 23 22 29 32 32 33 32 25 19 18 19 19 19 19 21 26 27 25 23 24 23 25 26 27 28 30 33 37 39 37 34 31 29 30 29 23 18 18 18 19 19 21 23 26 27 27 27 27 26 26 28 30 30 28 25 26 27 28 28
31 25 22 26 29 26 26 28 28 27 26 26 26 23 19 20 21 20 19 23 26 27 28 28 28 29 30 31 32 33 35 37 38 37 35 32 30 30 28 24 21 20 20 20 22 24 26 27 28 30 31 31 29 29 29 31 32 29 26 25 27 29 30
35 33 28 28 32 31 27 27 30 29 27 29 31 30 26 24 24 22 20 22 26 29 30 31 31 31 31 33 35 36 36 36 36 35 34 32 29 27 25 24 23 23 22 22 22 24 27 28 30 31 33 33 32 31 31 32 33 30 26 25 27 28 30
36 36 29 29 34 32 28 25 29 35 34 31 32 31 27 26 26 26 26 28 30 31 31 31 30 29 30 32 35 37 37 36 35 33 30 27 24 25 25 24 24 26 26 26 25 26 28 31 32 32 33 34 34 33 34 34 33 30 27 26 26 27 28
36 35 29 29 33 34 30 24 23 32 38 35 33 30 26 24 26 27 29 31 32 32 31 31 30 30 33 35 36 37 38 39 38 32 26 23 23 24 24 23 23 25 27 29 29 29 30 33 34 34 34 36 35 35 36 36 33 30 28 26 26 27 27
36 38 33 30 30 31 32 27 22 25 32 32 32 33 31 29 29 29 28 28 28 29 30 32 32 32 35 38 39 37 35 34 32 28 25 25 27 28 27 25 23 23 25 29 32 33 33 35 36 35 36 37 36 36 38 37 35 33 30 28 27 28 28
35 37 38 36 32 26 28 31 26 23 27 28 26 30 34 35 34 32 30 28 27 28 32 34 35 37 39 42 42 40 36 32 28 27 27 27 28 29 29 28 28 27 27 28 31 34 35 34 34 35 37 37 37 37 39 39 38 36 33 31 30 29 28
39 38 38 38 36 29 26 31 30 25 26 28 26 27 32 37 38 35 36 35 31 31 33 34 37 40 41 43 44 44 43 40 35 33 31 28 29 31 32 32 33 33 33 33 33 33 34 34 34 35 36 36 37 39 40 40 40 40 38 35 31 30 29
43 41 38 34 34 33 29 30 31 27 25 27 26 25 27 32 34 33 35 37 34 33 34 34 36 39 41 43 45 47 47 44 41 36 31 28 30 33 34 35 34 34 35 36 36 35 34 35 35 34 34 34 36 37 38 38 40 44 43 37 33 33 33
43 40 36 30 30 33 32 30 30 28 26 27 29 28 28 30 32 32 34 37 36 35 37 39 40 43 45 47 49 51 49 43 38 33 28 27 30 32 33 35 36 37 37 35 36 37 35 36 35 34 34 35 34 34 35 34 35 38 40 41 42 41 38
44 39 36 33 34 37 36 33 32 33 34 34 34 33 33 34 35 34 35 35 34 33 35 39 42 44 47 49 52 53 47 37 32 30 28 29 31 33 34 34 35 38 37 35 34 35 35 36 36 36 36 35 32 32 33 33 33 32 33 37 42 42 38
47 41 37 37 41 45 43 39 37 39 42 42 38 35 35 37 37 38 40 41 40 37 36 37 40 44 47 50 53 54 45 37 36 37 35 34 35 35 35 34 35 37 38 36 34 34 35 37 37 37 35 32 30 32 34 36 36 35 33 34 36 35 32
49 46 42 42 45 48 48 45 43 43 44 44 41 37 37 38 36 38 43 47 46 42 40 41 44 48 51 52 54 53 46 42 42 43 42 40 38 37 35 35 36 37 37 35 33 35 38 39 39 38 36 33 32 34 37 37 37 35 33 32 31 26 24
47 46 47 48 48 48 48 47 47 48 46 45 44 43 41 40 38 37 40 45 44 39 38 42 46 49 51 52 51 46 40 40 42 42 43 41 38 37 36 36 36 36 35 34 35 38 40 40 39 40 41 38 33 31 34 38 37 32 27 27 27 25 25
50 47 46 49 51 51 51 47 47 48 45 44 47 48 47 45 43 40 39 43 46 44 43 45 47 48 49 49 47 40 34 36 39 39 40 39 36 35 34 33 34 34 33 34 38 40 39 39 41 43 42 35 29 30 36 39 37 32 28 29 30 30 32
47 46 45 46 47 50 51 47 45 46 44 44 46 49 51 50 47 46 45 46 47 49 50 51 51 49 46 44 43 39 36 39 41 40 40 40 35 31 31 31 33 33 32 34 39 39 36 37 41 41 36 29 27 32 34 31 29 28 29 31 32 32 33
38 39 41 41 41 43 45 44 44 45 44 43 44 48 54 55 53 52 52 51 50 50 52 55 56 54 50 46 43 42 41 41 40 37 38 40 37 33 32 33 34 34 33 35 38 38 37 38 40 39 36 33 31 30 28 27 30 32 32 33 34 33 32
35 35 35 36 37 39 39 39 42 42 39 38 40 44 50 54 56 56 55 55 54 54 54 56 57 56 54 52 48 43 41 40 37 35 35 39 39 36 34 33 33 34 34 35 37 38 38 38 38 38 39 39 35 32 33 38 40 37 36 36 34 32 32
36 35 35 35 36 38 39 38 40 40 37 36 38 40 42 46 51 53 54 55 55 55 55 57 57 55 52 48 43 38 36 35 35 34 34 37 39 38 35 33 32 32 34 35 36 37 38 39 39 38 40 40 39 38 40 41 39 37 37 36 32 32 35
39 34 31 31 33 36 39 39 39 39 39 39 42 41 39 39 41 43 45 47 47 47 47 47 46 45 41 38 36 36 36 36 35 36 37 38 39 39 38 37 35 34 34 35 36 37 37 39 40 39 38 38 38 39 41 40 39 41 41 37 34 36 36
40 33 30 31 33 36 38 37 37 39 40 41 43 42 40 39 39 38 40 41 40 39 38 38 36 35 35 36 37 38 38 36 36 39 40 40 40 41 41 41 40 38 36 37 38 38 39 40 42 41 38 35 36 37 38 39 39 40 39 36 35 36 36
41 39 37 37 38 40 40 38 38 40 40 39 38 37 36 38 39 39 39 39 38 36 36 36 35 35 36 36 37 37 37 37 37 39 41 42 42 41 40 40 40 40 39 40 40 40 40 41 44 43 38 35 37 39 38 37 38 39 39 37 36 35 36
39 41 41 41 41 42 40 40 41 40 39 38 37 35 36 39 40 41 40 39 38 37 38 38 38 39 40 40 40 39 39 39 38 36 37 40 41 40 39 38 40 41 41 42 43 42 41 41 43 40 36 36 40 41 38 36 38 38 38 37 35 35 37
38 40 41 40 40 41 40 41 42 41 39 40 39 37 36 36 36 37 38 39 39 40 41 41 41 42 43 42 40 39 39 39 38 35 35 37 39 40 40 40 40 41 42 42 42 41 40 39 37 35 35 38 41 39 37 37 37 35 34 33 34 35 38
40 39 39 39 39 41 42 42 43 42 40 40 40 38 36 33 32 32 34 35 37 38 39 38 39 40 40 40 38 37 38 38 38 36 36 37 38 39 39 40 41 41 40 41 41 41 41 39 37 35 37 41 42 39 38 37 36 34 33 33 35 37 40
44 43 42 41 40 40 41 42 41 40 40 40 39 38 36 35 34 34 34 35 36 38 38 38 39 40 40 39 38 37 37 37 37 37 37 37 38 38 38 39 40 39 39 40 42 43 42 41 40 39 41 43 44 42 40 38 38 37 36 36 38 40 42
45 44 43 42 41 41 41 41 40 41 42 43 43 41 39 37 37 37 37 37 38 39 39 38 38 38 39 38 38 38 38 37 37 37 37 37 38 38 38 38 39 40 42 43 45 45 43 42 42 42 43 44 43 42 40 39 37 37 36 37 40 42 44
47 47 47 48 48 46 43 41 40 41 42 41 41 40 38 37 36 35 35 34 35 36 36 36 36 37 38 38 38 38 39 38 38 37 37 36 37 38 38 39 40 42 44 45 45 45 44 43 43 42 43 44 43 42 40 39 37 38 40 42 43 45 47
45 44 42 42 43 42 40 39 38 35 33 31 31 32 33 33 32 32 32 32 33 35 37 37 37 37 38 39 38 38 39 39 40 40 39 38 39 40 41 42 42 43 44 45 45 44 43 42 42 42 42 43 43 41 40 40 41 43 45 46 46 47 49
41 39 36 35 36 37 36 36 36 34 32 32 31 31 32 33 34 34 34 35 36 37 38 37 38 39 40 39 38 38 40 41 42 43 43 42 42 43 44 44 44 45 45 45 46 45 44 44 43 42 41 40 40 42 43 43 44 44 45 45 46 47 47

ECMWFFLT2_500_spd_015.txt.gz
Wind_Speed
46 45 43 41 44 44 44 45 46 45 44 43 43 40 37 33 32 33 33 31 31 29 27 27 28 28 25 20 20 21 22 23 22 17 11 8 8 8 9 11 13 14 13 15 17 20 23 25 24 23 22 21 21 21 19 18 18 18 18 18 19 19 21
45 43 43 43 45 45 46 47 47 46 47 46 45 42 38 36 35 36 35 30 29 29 27 25 25 28 28 24 21 20 21 24 22 17 12 10 11 11 11 13 15 14 14 17 18 18 18 19 21 21 20 20 19 18 17 17 18 18 18 19 19 20 21
44 43 44 46 47 47 48 48 46 48 51 50 48 44 40 40 40 40 41 38 36 36 34 29 26 27 30 29 25 21 21 22 20 15 14 14 15 14 13 15 16 15 15 17 17 17 16 16 16 16 17 17 16 15 16 17 18 19 20 21 21 22 23
44 45 47 48 48 49 49 47 45 47 48 47 45 44 43 43 44 45 47 47 44 40 39 37 35 35 35 32 25 19 17 16 14 14 16 18 18 16 14 16 18 17 16 15 14 14 14 15 16 15 15 15 15 16 16 17 18 20 22 23 24 25 26
46 48 49 47 46 48 48 47 46 45 45 45 41 42 46 47 47 48 49 47 41 34 33 33 32 32 29 24 21 20 17 13 12 15 18 20 20 17 16 19 19 18 16 15 14 14 13 13 14 15 16 16 17 17 17 18 19 21 23 24 26 28 30
47 47 48 45 43 45 46 46 47 45 45 46 44 45 48 49 48 47 44 41 35 29 29 28 26 25 22 18 19 20 18 15 15 17 20 21 19 17 18 20 19 17 17 17 17 15 13 12 12 13 15 16 17 18 19 20 21 22 24 27 29 31 32
45 45 47 46 44 43 44 44 45 44 44 45 46 48 49 47 47 45 41 39 35 30 30 29 25 22 19 19 21 23 22 21 19 20 21 20 18 18 20 19 16 15 15 16 16 14 12 12 12 13 14 16 17 19 20 22 23 24 27 29 31 33 34
43 44 46 47 43 42 43 42 41 43 44 43 43 44 43 43 44 44 41 40 37 31 29 29 25 21 20 21 23 25 26 25 24 23 22 19 19 19 17 15 14 15 15 14 13 11 11 12 13 14 15 16 17 19 20 22 24 27 30 32 33 34 35
46 48 48 48 44 42 41 38 36 37 39 40 41 40 38 39 40 40 40 40 36 28 24 24 22 20 20 22 23 25 25 26 26 26 22 20 20 19 16 16 16 16 16 15 13 12 13 14 15 16 16 16 17 18 20 23 26 29 31 33 34 35 37
49 51 51 47 43 41 40 38 34 33 33 36 40 40 38 38 37 36 37 37 34 28 23 22 22 22 22 23 22 22 22 22 22 22 20 20 21 18 17 19 18 16 16 15 16 16 17 16 17 17 17 17 18 19 22 24 27 30 33 35 36 36 38
47 47 45 42 39 40 39 36 34 32 32 35 40 42 40 37 35 34 35 34 33 32 27 25 24 24 24 23 21 20 18 17 18 19 20 21 21 19 21 22 20 18 17 18 20 21 21 20 20 20 19 20 22 24 26 28 30 32 35 36 37 38 40
43 42 41 39 39 40 38 35 33 33 33 36 41 43 40 36 34 32 32 33 35 35 31 27 26 26 24 22 21 19 17 17 18 19 21 23 23 22 23 24 23 21 20 21 22 23 24 23 23 23 23 24 26 27 28 30 32 34 37 39 39 39 42
41 43 42 41 40 40 37 35 34 34 35 39 43 43 39 37 36 31 29 33 36 35 33 29 26 25 22 20 21 21 20 20 20 21 23 24 24 24 25 26 25 24 23 23 24 24 23 22 22 23 25 26 27 27 29 32 34 36 39 41 41 40 42
39 45 45 43 42 40 38 36 35 34 36 39 41 41 39 38 38 34 32 35 35 34 32 29 27 25 22 22 24 24 25 25 23 23 25 25 26 27 28 28 27 26 26 26 25 23 22 22 24 26 27 29 29 30 33 36 38 39 40 41 40 40 41
38 46 46 44 41 39 37 37 35 33 33 35 38 40 39 39 40 39 38 39 36 33 34 33 31 29 27 28 29 29 29 27 25 25 26 27 29 30 31 31 30 29 30 30 27 23 23 25 28 29 30 31 32 34 38 42 43 43 41 39 38 38 40
37 45 49 45 39 37 38 39 36 32 32 34 37 39 40 40 40 40 41 43 40 36 37 38 36 34 33 32 32 32 32 29 26 27 29 30 32 33 33 33 32 33 34 33 29 25 26 28 31 32 33 34 35 37 41 43 44 44 42 40 38 39 40
36 43 49 45 37 36 40 41 39 36 35 36 37 38 40 39 38 37 38 40 40 39 40 41 39 37 35 35 35 34 31 28 27 29 31 32 33 33 34 34 34 35 37 36 32 30 31 33 34 35 35 35 36 38 41 42 43 44 43 41 40 40 41
34 40 46 44 41 40 38 36 38 39 39 39 39 40 41 40 39 37 36 37 38 39 41 42 41 39 38 37 36 33 29 28 30 32 34 35 34 33 34 35 36 37 39 38 34 34 37 38 38 38 35 34 36 39 41 43 43 44 43 42 41 41 42
34 37 41 44 47 47 39 34 36 39 42 45 45 43 44 43 42 40 38 38 40 39 39 40 41 41 41 40 38 37 34 33 33 35 37 36 34 34 36 37 37 38 40 39 37 38 41 42 42 41 37 36 39 41 43 43 44 44 44 44 43 43 43
35 37 38 41 46 47 43 41 41 41 44 48 50 48 46 46 45 43 41 42 43 43 42 41 39 40 40 40 39 40 41 40 39 40 39 37 36 37 38 38 38 38 39 39 39 41 43 43 44 43 39 38 41 43 44 44 44 45 45 45 44 43 43
37 37 36 38 42 45 46 46 47 46 46 49 53 53 50 47 45 44 42 41 42 43 44 43 40 38 37 36 36 37 39 40 41 41 40 39 40 40 38 38 38 39 38 37 39 42 43 43 44 43 42 43 46 47 46 45 45 45 44 45 44 42 42
39 38 36 37 42 46 48 48 49 49 49 51 54 55 54 52 47 45 44 42 41 41 41 42 42 39 37 37 36 36 37 37 38 39 39 39 40 40 40 39 40 40 37 37 40 44 44 44 45 45 47 50 51 49 47 45 45 45 45 45 44 43 43
41 41 39 37 39 44 47 48 50 51 51 50 48 48 51 52 49 47 45 42 43 44 41 40 41 40 39 40 40 40 38 38 38 38 38 40 41 42 43 44 43 41 39 40 44 45 45 46 47 47 50 52 50 47 45 45 45 46 46 46 45 45 44
42 43 44 43 41 41 42 43 45 48 50 49 44 42 45 47 46 45 43 40 41 43 40 37 37 39 40 40 41 40 38 37 37 37 38 40 42 43 45 45 43 41 42 45 46 46 47 49 49 51 53 51 47 45 45 45 47 48 48 47 46 45 44
42 41 44 47 47 46 43 42 42 43 45 45 44 44 45 45 42 40 39 37 37 38 36 36 37 39 40 41 41 41 40 39 40 40 41 43 43 44 44 44 43 44 45 45 46 47 48 49 50 51 51 47 45 45 46 47 48 48 47 46 45 43 42
44 43 43 45 47 49 48 47 46 46 43 41 41 42 44 45 41 37 35 35 36 36 37 38 39 40 40 39 39 39 40 41 43 44 46 47 46 45 44 45 46 48 48 48 49 50 49 49 49 47 44 43 43 45 47 48 48 46 45 44 43 42 42
45 46 46 46 45 46 47 48 47 48 47 44 41 40 41 43 43 42 41 40 39 40 41 40 41 42 43 42 41 40 40 42 44 46 48 50 49 49 49 50 52 54 55 55 55 54 52 49 47 44 42 43 44 46 48 48 46 44 42 42 41 41 42
47 45 46 48 48 47 46 46 46 46 48 48 46 43 42 43 45 46 46 45 44 44 45 45 46 46 47 47 46 45 44 46 47 48 49 51 53 55 56 58 61 59 55 52 51 51 49 47 44 43 44 46 46 47 46 44 42 41 41 41 41 41 42
51 48 46 48 50 50 48 46 45 45 48 50 51 50 48 47 47 48 48 49 49 49 49 50 49 48 49 50 51 51 50 50 50 50 51 53 55 57 58 60 59 52 43 41 43 45 45 45 44 44 45 45 45 43 42 41 40 40 40 40 40 41 42
52 53 52 52 52 52 52 50 47 45 46 48 50 52 53 53 53 53 52 52 54 54 53 54 54 53 53 53 52 51 50 48 48 49 52 54 56 56 53 51 47 40 36 37 40 41 42 44 44 44 43 42 40 39 38 39 39 39 39 40 41 42 43
47 50 52 53 52 51 50 50 48 45 45 46 47 48 49 50 52 54 55 55 57 58 59 59 60 60 59 58 55 53 51 50 50 51 53 54 53 51 48 43 39 36 36 37 39 39 40 41 41 41 40 38 38 37 37 37 38 38 39 41 41 42 43
47 47 48 48 49 49 48 48 45 42 43 46 48 47 46 46 48 49 50 52 54 55 58 61 62 62 62 60 57 55 53 51 50 50 49 47 44 42 40 37 35 34 35 36 37 38 39 40 40 39 38 38 38 38 38 38 38 39 41 42 42 43 44
49 49 48 46 46 47 49 48 46 43 41 42 44 45 44 43 43 43 42 42 43 46 51 56 57 57 57 55 52 50 49 47 46 45 43 40 38 37 36 35 34 35 36 37 39 39 39 39 39 39 38 39 38 38 39 39 39 40 42 42 41 40 37
50 50 48 47 45 44 42 41 41 42 42 40 39 39 38 37 38 39 40 40 41 44 48 49 49 48 47 47 47 46 44 42 40 39 37 35 35 36 36 36 36 36 37 38 38 38 38 38 38 39 39 39 39 39 40 40 40 43 44 42 38 34 30
47 47 44 42 42 42 40 37 35 35 36 35 35 34 34 33 34 36 37 37 39 41 40 39 39 38 37 38 39 40 38 37 36 35 35 36 36 36 35 35 35 35 36 36 37 38 38 39 39 40 40 40 40 41 41 41 42 44 43 41 39 37 37
43 43 39 33 31 32 34 34 32 30 29 29 29 29 30 31 32 34 34 35 36 37 35 35 35 35 35 35 35 36 35 35 35 35 35 35 34 32 31 32 33 34 35 36 38 39 40 40 40 40 41 41 42 42 43 43 44 45 45 44 43 43 44
38 39 38 34 29 27 27 28 29 29 29 29 30 30 31 32 33 34 35 37 38 39 38 37 35 34 33 32 32 32 32 31 30 31 31 31 32 32 32 33 35 36 37 38 39 40 41 41 41 41 42 43 44 45 46 46 46 46 47 47 47 47 46

ECMWFFLT2_500_spd_021.txt.gz
Wind_Speed
56 56 58 57 56 57 57 57 55 51 46 43 46 48 46 44 44 44 44 40 33 26 23 21 19 17 17 18 17 16 17 19 17 11 8 7 7 7 9 9 10 10 9 9 10 11 12 12 13 14 15 17 19 20 21 22 22 21 20 18 17 16 15
57 57 58 59 58 57 58 58 54 49 48 47 47 49 49 48 48 48 46 42 38 34 30 25 22 20 19 17 16 15 16 14 10 6 6 5 5 7 10 11 12 12 10 10 11 12 13 14 14 14 14 14 15 17 18 20 20 19 19 18 17 16 14
56 57 59 61 61 61 62 59 54 53 55 52 50 52 54 52 52 52 49 45 41 38 33 27 23 22 20 16 15 15 14 10 6 6 7 7 8 9 10 11 13 12 11 11 12 13 14 15 15 14 12 11 11 13 15 16 16 16 16 15 15 14 13
56 59 62 63 63 63 64 62 60 60 59 55 51 53 55 54 54 53 51 48 44 37 32 28 25 22 20 17 16 16 13 9 8 8 9 10 11 11 11 11 12 12 12 13 14 15 16 16 16 14 12 10 9 9 11 12 13 13 13 13 13 13 13
57 60 62 63 63 64 65 65 65 64 62 60 55 53 55 56 55 54 53 51 46 37 31 29 25 22 20 16 15 15 13 10 10 10 12 13 13 12 12 13 13 14 14 15 17 18 17 17 16 14 12 10 9 8 9 11 12 12 13 13 13 13 13
58 60 60 60 61 64 64 65 65 64 62 61 58 56 57 57 58 57 56 55 49 40 33 30 27 24 22 18 16 16 14 13 14 14 15 15 15 15 15 16 17 17 17 17 19 19 17 15 14 13 11 10 9 9 9 10 11 12 13 13 13 12 13
57 58 57 58 60 63 65 66 66 64 63 62 61 60 57 57 58 59 58 57 53 44 36 31 27 25 24 22 20 18 15 15 16 18 18 18 19 19 19 20 21 20 20 19 20 20 16 13 12 11 10 10 10 9 9 9 10 11 12 12 12 12 14
56 55 55 56 57 60 65 68 68 66 66 65 63 61 57 56 58 58 58 59 56 47 38 32 29 26 25 25 22 19 17 16 18 20 20 21 23 21 20 23 24 23 21 21 21 20 16 13 11 10 8 8 8 9 9 9 11 11 11 12 12 14 16
56 55 55 56 58 59 63 66 68 68 67 66 66 64 60 60 60 59 59 60 57 48 38 35 33 30 28 27 25 23 21 19 19 20 21 23 24 21 19 22 24 23 22 22 21 20 17 15 13 9 8 8 9 9 9 10 11 12 12 13 15 17 19
58 59 60 60 60 60 62 63 65 67 68 69 69 68 67 67 65 62 63 63 57 47 39 37 36 34 32 28 25 25 23 21 21 21 21 24 25 21 20 22 22 23 23 23 22 20 17 16 14 11 10 10 10 10 10 11 12 13 13 15 16 18 20
57 59 60 59 56 56 59 60 60 63 67 68 69 71 71 69 67 66 65 61 54 46 40 38 38 37 35 31 28 26 23 22 23 24 25 26 25 22 22 22 22 23 24 24 22 19 17 15 14 13 12 12 11 11 11 12 12 13 14 15 17 18 20
54 54 55 54 51 50 52 54 55 57 61 64 67 69 70 67 67 66 61 56 53 47 40 38 39 38 38 36 33 29 24 23 26 27 28 26 24 22 23 23 23 24 25 24 22 19 17 16 14 13 12 12 12 12 12 12 12 13 14 16 17 19 20
50 50 49 49 49 47 46 48 50 51 55 59 62 65 66 66 67 65 56 52 52 47 42 40 38 37 36 34 31 27 23 23 25 25 24 24 23 23 23 22 22 23 24 24 22 19 18 16 15 14 13 12 13 13 13 13 13 14 16 17 18 19 20
47 45 44 45 47 46 45 46 46 47 50 54 57 60 63 65 66 63 57 54 51 46 44 42 39 37 34 30 28 25 21 20 22 21 21 23 24 23 20 19 19 20 21 22 20 18 16 16 16 15 14 14 13 14 14 15 17 18 19 20 20 20 20
44 42 41 42 44 44 45 47 47 46 47 51 54 57 60 63 64 62 59 57 53 47 44 43 41 38 34 29 26 23 20 20 21 20 21 23 23 20 17 16 18 20 21 21 19 17 17 16 16 16 16 15 15 16 17 19 21 22 23 24 24 24 23
43 40 38 40 40 40 43 47 48 48 48 50 53 55 59 62 63 61 61 59 55 48 45 44 42 38 34 30 27 25 24 23 21 20 21 21 21 19 17 18 19 21 23 22 20 19 19 18 17 18 19 18 18 20 21 22 24 26 27 27 28 28 28
43 40 38 39 39 40 45 51 52 50 50 51 53 55 58 60 61 61 61 59 55 49 45 43 41 37 34 31 30 28 28 26 25 24 23 22 21 20 20 21 22 24 24 24 22 22 22 21 21 22 23 22 23 24 25 26 27 28 29 30 31 32 32
44 41 41 41 42 45 50 54 53 52 51 51 52 55 57 58 60 61 60 57 54 49 43 40 38 36 35 33 31 29 27 27 26 26 26 26 24 24 25 27 27 27 27 27 26 26 26 25 25 26 26 26 27 28 28 29 29 30 31 32 34 34 34
45 44 43 44 46 48 51 51 51 51 50 49 50 54 56 57 59 60 58 55 53 48 41 37 36 37 37 35 33 29 27 26 26 26 26 27 26 27 30 32 31 30 29 29 29 29 29 29 29 29 29 29 30 31 31 30 31 32 32 33 35 36 36
46 45 46 47 47 48 49 48 47 47 49 50 51 54 57 58 59 59 57 53 50 44 39 36 37 38 38 37 35 31 28 26 26 27 27 27 28 31 32 33 33 32 31 30 31 31 31 31 31 31 31 32 33 33 32 32 33 34 34 34 36 38 39
46 48 49 49 48 47 48 47 45 45 47 50 52 54 57 58 58 57 55 51 46 42 39 38 39 38 38 38 37 34 30 27 27 28 29 29 32 34 34 35 35 35 34 34 33 33 32 32 32 33 33 34 34 34 34 34 34 35 36 37 39 41 43
48 50 52 51 49 48 47 46 44 43 44 46 49 53 57 58 57 55 52 48 44 41 40 41 40 38 39 39 37 34 31 28 29 30 31 32 35 37 37 38 39 38 37 35 34 34 33 33 34 35 36 36 36 35 35 35 36 37 38 41 42 44 46
49 51 52 52 50 48 46 44 41 39 40 41 43 50 57 56 54 52 48 45 44 42 41 41 39 39 40 39 36 33 31 31 32 32 33 35 38 38 39 40 40 39 37 35 34 34 35 35 36 37 38 38 36 35 35 36 37 38 40 43 45 47 48
51 52 53 51 49 47 45 43 40 36 34 34 38 48 55 53 49 48 46 43 43 43 41 40 39 39 39 38 35 34 34 35 35 35 36 38 39 39 40 40 39 38 36 34 34 35 37 37 38 38 39 39 38 37 37 37 38 39 41 45 47 49 51
53 52 51 50 46 44 44 42 39 34 31 32 39 48 51 48 46 46 44 41 41 42 41 39 39 39 38 37 37 37 37 38 38 38 38 39 39 40 40 40 38 37 35 35 36 37 39 39 38 39 40 40 41 42 40 38 38 40 43 46 49 52 53
57 52 49 49 46 42 42 41 37 33 33 35 39 43 46 47 46 45 42 40 40 41 40 39 39 39 38 38 39 39 38 39 39 39 39 40 40 41 42 41 39 36 35 36 37 38 39 39 39 40 42 43 44 44 41 39 40 43 46 49 51 54 52
55 52 48 47 45 41 40 41 37 35 34 33 33 37 42 46 46 44 43 42 41 40 40 39 38 37 37 38 39 39 39 40 41 41 41 41 41 41 41 39 37 35 35 37 38 40 42 43 43 43 43 43 44 44 42 42 44 47 50 52 53 51 47
44 48 47 45 43 40 40 41 39 36 33 29 27 32 39 44 45 44 43 42 41 40 39 38 36 34 34 35 36 36 36 38 41 44 45 43 42 42 42 40 39 39 40 42 44 46 46 46 46 45 43 42 44 44 44 45 48 51 53 52 50 45 41
38 39 39 39 40 39 40 41 40 37 32 28 26 29 34 40 43 43 42 41 40 39 39 39 37 34 33 34 35 35 36 37 40 44 44 43 43 43 43 44 45 45 45 46 47 47 46 46 47 46 44 43 44 45 46 49 51 52 51 48 45 43 40
38 33 31 34 37 39 40 40 38 36 32 30 29 30 31 35 39 40 40 40 38 38 39 40 39 37 37 38 39 40 42 44 47 48 47 46 45 44 42 43 45 45 45 44 44 44 44 46 46 46 46 46 47 48 50 51 50 48 47 46 45 43 40
41 35 31 34 37 39 41 40 37 36 36 35 35 35 34 34 36 38 40 41 40 39 39 40 40 40 41 42 42 43 44 45 46 45 43 41 39 38 38 40 41 42 42 43 42 42 44 45 47 47 48 49 50 50 49 47 45 44 44 43 43 42 40
41 37 33 35 37 38 43 44 39 39 42 43 42 41 40 39 38 38 39 42 43 43 42 42 42 41 41 40 39 39 40 39 37 35 34 35 36 37 38 40 40 41 41 41 42 43 45 47 48 50 50 50 50 47 44 42 42 42 41 41 41 42 42
37 36 33 34 34 33 37 44 45 44 46 47 46 44 43 43 42 40 40 42 44 45 45 44 43 42 41 39 38 38 38 37 36 35 36 37 39 40 39 38 38 38 39 40 42 43 43 44 46 47 48 47 45 42 40 40 40 40 41 41 42 42 42
30 31 31 33 33 29 29 38 46 47 47 47 47 46 45 45 43 41 41 42 43 45 45 45 45 44 43 42 41 40 40 40 40 40 40 40 41 41 40 40 40 41 41 41 40 39 38 38 38 39 40 39 39 38 39 40 40 40 41 41 41 40 40
28 28 29 31 35 34 30 33 42 47 48 47 45 45 46 46 45 44 43 44 44 44 44 44 44 44 44 44 43 42 41 40 40 41 42 42 43 42 42 41 40 40 40 39 37 36 36 35 35 35 35 35 36 37 38 38 38 39 39 39 40 41 41
28 29 29 29 32 34 33 32 35 40 46 49 48 47 46 46 47 48 48 48 48 48 48 47 46 45 45 45 45 45 43 41 41 42 43 43 41 38 36 34 34 34 34 33 32 32 33 34 34 35 35 35 36 36 36 36 36 38 39 40 42 43 43
28 30 31 30 29 31 33 34 33 34 38 42 44 44 44 44 45 47 47 47 47 47 47 46 45 44 43 43 44 43 41 40 41 41 41 39 36 33 32 32 32 32 33 33 33 34 35 35 36 36 36 36 36 36 36 36 38 40 42 43 44 45 45

ECMWFFLT2_500_spd_024.txt.gz
Wind_Speed
55 56 55 56 60 61 60 60 60 55 51 49 46 44 41 37 35 36 39 42 42 45 38 25 27 33 32 30 28 26 25 23 21 21 20 18 15 13 14 14 13 13 11 11 11 11 11 11 10 10 11 13 15 17 19 20 21 21 21 21 20 19 17
55 56 55 57 58 61 63 62 60 57 57 55 48 42 42 42 42 41 40 35 33 42 39 27 30 35 32 30 28 26 25 22 21 21 21 18 13 11 13 13 14 14 12 12 13 12 13 12 11 11 11 12 14 15 16 18 18 19 20 20 20 18 17
54 56 57 59 59 60 62 63 63 63 63 61 56 49 43 41 44 46 45 38 33 38 37 29 31 34 31 29 26 24 24 22 19 18 18 16 13 10 11 12 12 13 12 13 14 13 13 13 12 12 12 12 12 13 14 15 16 17 17 17 16 16 16
53 57 59 60 60 59 61 65 67 67 66 64 63 61 55 47 43 43 44 44 43 41 37 32 32 34 33 29 26 24 23 20 18 17 16 15 13 11 11 12 13 13 13 15 15 14 14 13 13 14 14 12 12 13 14 14 15 15 14 14 14 15 15
52 57 60 60 60 60 63 66 67 68 70 68 64 62 61 57 50 42 40 45 47 42 37 35 33 34 33 29 27 25 22 19 18 17 16 15 14 13 13 14 15 15 15 17 17 16 15 14 14 14 14 13 13 14 14 14 14 13 12 13 13 14 14
51 53 57 58 58 59 61 63 64 66 68 69 67 64 61 59 58 49 42 46 46 38 36 37 35 34 33 29 27 26 23 21 18 16 16 15 14 14 15 17 19 18 18 20 20 19 18 16 15 15 15 14 14 14 14 15 13 12 12 12 13 14 14
48 49 53 58 59 57 58 60 61 64 66 67 69 70 63 58 59 55 46 46 45 39 40 39 35 35 34 28 26 25 24 23 19 16 16 16 15 15 16 19 20 20 21 22 22 22 21 18 17 16 15 14 14 14 14 14 12 12 12 13 14 14 15
48 47 48 54 58 57 56 59 61 63 66 66 66 68 66 60 61 60 53 52 50 46 45 38 31 32 32 28 27 25 23 22 19 18 19 18 17 18 19 21 21 20 21 25 25 24 22 20 19 18 15 14 14 14 14 14 13 13 13 14 15 15 15
48 47 47 53 59 60 60 61 63 64 65 65 66 67 67 65 65 61 59 61 58 51 47 40 32 30 29 27 27 26 24 22 20 20 19 17 17 20 22 23 23 21 21 25 27 25 24 23 22 21 17 15 14 14 15 15 14 14 15 15 15 14 14
47 47 49 53 56 59 62 64 64 64 65 65 66 67 68 71 70 66 64 65 57 48 49 46 38 34 30 26 27 27 25 23 21 21 20 18 18 20 23 25 24 21 20 23 25 25 25 24 24 23 20 17 15 15 15 15 15 15 15 15 14 13 14
45 45 46 49 51 55 60 63 63 64 65 65 66 69 71 72 72 72 72 68 58 50 50 48 43 38 32 28 29 28 24 22 21 21 21 21 21 21 23 25 25 22 20 23 24 25 25 25 25 25 22 19 17 16 15 15 14 14 14 13 12 11 12
44 43 43 45 49 52 55 58 61 63 64 65 67 71 72 70 72 74 73 70 66 59 51 46 43 39 33 31 30 28 25 23 22 20 20 21 23 24 24 26 26 23 22 25 26 25 26 27 26 25 22 20 19 17 16 14 14 13 12 11 10 11 12
43 42 42 42 45 49 51 54 58 60 62 63 66 69 69 69 73 75 72 70 69 63 55 51 48 41 34 32 31 29 28 28 25 22 20 21 24 26 26 27 28 26 26 27 26 26 28 28 27 25 23 21 19 17 15 14 13 12 11 11 12 14 16
41 41 41 40 42 45 47 51 55 56 58 60 62 64 65 68 71 72 71 70 69 63 58 55 53 48 39 33 33 34 33 29 26 23 21 21 25 27 28 29 29 29 28 27 27 28 29 27 25 24 22 20 19 17 15 12 11 11 11 12 14 16 18
40 40 39 39 41 41 42 48 51 52 54 54 56 60 62 64 67 68 68 70 70 64 57 53 53 53 47 39 36 36 33 28 24 21 21 22 25 27 29 29 30 30 29 27 27 28 27 24 21 21 21 19 18 16 14 12 12 12 13 14 16 17 19
42 40 38 38 39 39 42 47 49 51 52 52 53 58 61 62 63 64 66 69 68 65 59 55 53 52 51 46 39 36 33 27 23 21 21 23 24 26 27 28 30 30 27 26 26 26 24 22 19 18 19 18 17 16 15 14 15 15 16 17 19 20 21
41 39 38 38 39 41 45 47 46 49 52 54 55 58 61 61 61 62 65 66 64 62 60 57 52 50 51 48 40 36 34 28 23 22 22 23 24 25 26 28 29 28 25 24 25 24 23 23 21 19 20 20 20 19 18 18 19 19 19 20 21 23 24
40 38 37 37 40 42 44 42 40 43 48 52 55 57 58 60 59 61 63 62 60 60 59 56 53 51 51 47 40 37 36 31 25 24 26 26 26 26 26 27 27 25 24 25 26 26 26 25 24 23 23 23 23 22 22 22 23 23 23 23 24 25 26
40 40 40 40 39 39 40 38 36 40 45 49 53 56 56 58 59 61 61 59 59 59 57 54 53 51 49 45 41 39 37 33 29 28 30 30 29 27 26 25 24 24 25 26 28 29 30 29 28 27 27 26 25 24 24 26 27 27 26 26 26 27 28
41 43 45 45 40 37 39 38 37 39 43 47 51 53 55 56 57 58 58 57 57 57 56 54 53 51 48 45 42 41 39 34 32 33 35 34 31 30 28 26 24 25 26 28 30 33 34 34 32 31 29 28 26 26 27 29 30 30 29 28 28 30 31
44 44 44 44 43 42 41 39 38 39 41 44 49 51 52 52 53 54 55 55 55 55 54 54 53 50 48 46 43 41 39 36 35 36 38 38 36 34 31 29 27 28 30 32 35 38 38 37 35 33 32 31 29 29 30 31 33 34 32 30 31 32 34
45 45 44 42 43 44 42 39 38 39 40 42 45 48 49 48 49 51 52 53 53 53 53 54 52 49 49 46 42 40 39 38 37 38 39 40 38 36 34 31 30 32 34 36 39 42 41 38 37 35 34 34 32 32 33 33 35 36 34 33 33 34 36
44 46 47 42 39 41 43 41 38 37 39 40 41 44 47 46 47 48 49 51 52 51 51 52 50 49 49 45 39 38 39 39 40 40 41 40 38 37 36 34 33 35 36 38 41 43 42 40 39 38 37 36 35 35 36 37 38 37 36 35 35 36 38
46 48 48 45 41 41 42 42 40 38 39 39 39 42 42 42 43 45 46 48 50 49 50 51 48 47 47 43 39 37 38 40 41 42 41 39 38 38 38 37 36 37 38 41 43 44 44 42 41 40 39 38 37 37 39 40 40 38 37 37 38 39 40
48 48 49 48 46 43 39 37 39 39 39 39 41 42 40 38 40 43 43 45 48 49 50 48 46 45 45 42 39 38 38 39 42 43 42 40 38 38 38 38 38 39 40 42 44 46 45 44 42 41 40 39 38 39 42 44 42 40 39 40 41 43 44
47 48 48 48 48 46 40 37 38 39 40 41 41 41 39 38 39 39 39 42 45 47 48 46 44 45 45 42 39 39 39 40 42 43 43 41 39 39 39 38 39 39 40 42 44 46 45 44 43 42 41 40 40 42 44 45 43 41 41 43 46 48 48
47 49 49 48 47 45 41 40 40 41 41 40 39 39 40 40 38 36 36 39 40 41 43 44 43 44 44 41 39 39 40 40 41 43 42 41 40 41 41 40 40 40 41 42 43 44 44 45 45 44 43 42 42 44 45 44 44 44 44 46 48 49 47
47 48 48 46 44 42 39 39 40 41 40 38 37 38 40 40 37 34 33 34 32 32 35 38 39 40 41 41 40 40 40 39 40 41 41 40 42 43 43 42 41 40 40 41 42 44 46 47 47 46 46 45 44 45 45 45 45 46 46 48 49 48 48
46 46 45 43 41 40 39 38 39 41 42 39 37 37 38 39 37 35 32 30 28 28 30 33 35 37 39 39 39 39 39 38 38 39 40 42 44 43 43 42 41 40 41 43 45 47 49 49 50 50 49 46 44 44 45 45 45 46 47 48 49 50 51
45 42 41 42 40 38 38 39 40 42 44 41 38 37 38 38 36 33 30 28 29 30 30 31 34 37 36 35 37 38 38 38 39 40 42 44 44 43 41 40 40 42 43 45 47 49 50 51 51 51 47 44 43 44 46 45 44 45 47 49 50 52 52
40 37 37 38 38 36 36 38 40 41 43 41 38 38 39 38 34 29 27 27 29 31 30 30 34 37 35 34 35 37 37 38 40 42 43 43 43 42 40 40 41 44 46 47 48 50 51 52 51 48 44 42 43 44 44 43 44 46 48 50 50 51 50
33 34 34 35 35 35 36 39 40 42 43 41 38 39 41 38 33 30 29 29 30 32 32 33 36 38 38 37 36 37 38 39 41 43 43 42 41 41 40 40 41 43 45 47 48 50 52 52 50 47 43 43 44 44 43 43 45 46 47 47 46 46 45
31 31 32 33 35 34 36 38 39 42 44 43 40 41 41 38 35 34 36 38 39 38 37 37 38 39 40 40 40 40 41 40 41 42 42 42 42 42 41 42 43 45 47 48 49 50 51 52 50 46 43 43 43 43 43 44 45 45 44 43 42 41 40
30 29 28 29 30 31 35 38 38 40 44 44 44 45 43 39 38 40 42 45 45 42 41 40 40 40 40 40 40 40 39 39 41 43 44 44 44 43 44 46 47 47 48 48 48 48 48 48 47 45 44 43 44 44 45 45 44 43 42 41 40 40 39
29 27 25 24 24 28 35 37 33 35 42 45 45 46 46 43 42 42 44 46 45 42 41 41 41 41 41 40 40 41 41 41 43 44 45 46 46 46 46 47 48 47 47 47 47 46 47 47 47 45 45 45 45 45 45 45 44 42 42 41 41 41 41
29 27 25 23 21 25 33 35 28 27 35 43 47 47 46 45 45 43 43 45 44 43 43 43 44 44 44 43 43 44 44 44 45 45 46 47 48 48 48 48 48 48 47 46 46 47 48 48 47 44 44 44 44 44 44 43 42 42 42 42 43 43 43
29 29 28 26 23 24 30 34 30 26 28 35 44 49 48 46 47 48 47 47 46 45 45 45 45 45 46 45 46 46 46 47 46 46 47 48 48 49 48 48 47 47 46 47 47 47 47 46 44 42 41 41 42 42 42 42 42 43 44 44 45 45 44

ECMWFFLT2_500_spd_030.txt.gz
Wind_Speed
30 30 28 30 33 34 35 38 45 45 44 46 44 36 30 29 31 31 28 30 31 28 27 27 29 29 27 25 22 23 24 21 21 23 24 22 19 17 19 19 18 18 16 15 13 11 8 5 4 5 7 9 10 12 14 16 17 19 20 20 21 22 22
30 32 31 30 33 34 34 38 42 41 41 45 43 39 36 35 35 32 29 32 31 28 28 27 27 26 25 25 24 25 25 19 18 21 24 23 20 18 19 19 20 21 20 17 14 11 7 5 5 5 7 8 8 9 10 12 13 15 17 18 20 21 21
29 32 34 33 32 35 38 38 34 34 41 46 43 41 41 41 40 34 30 31 30 28 28 28 28 26 25 26 24 27 29 23 18 19 22 25 23 19 19 19 21 22 21 18 15 11 9 7 7 7 8 9 8 8 9 10 12 13 15 17 17 19 20
27 33 38 35 32 34 38 40 34 31 39 46 44 44 44 44 41 35 33 33 30 28 28 27 27 25 28 33 29 26 27 25 24 20 20 27 24 17 17 19 23 24 21 19 16 14 12 10 10 10 10 9 8 8 8 9 11 12 13 14 15 16 17
28 39 42 37 33 34 37 42 44 37 33 38 41 42 43 45 45 39 35 35 33 28 25 26 26 27 34 38 36 31 26 28 28 20 19 30 31 23 21 22 24 27 24 22 20 18 15 13 13 13 11 9 8 9 9 9 10 11 12 13 14 15 15
30 38 41 37 35 35 33 38 46 45 37 31 33 39 40 42 47 45 38 36 34 29 25 24 26 27 34 36 34 34 30 31 34 25 24 33 35 29 27 27 28 29 26 24 22 20 17 15 13 13 12 10 8 9 10 10 10 10 12 13 13 14 14
33 30 33 37 37 36 34 35 40 46 46 38 33 38 42 42 46 45 42 41 36 28 26 25 24 27 33 34 33 32 30 29 29 24 25 32 31 28 29 30 30 29 26 24 25 22 17 14 14 14 14 12 9 10 12 12 10 11 12 13 13 14 14
38 29 27 36 39 38 38 38 38 41 48 49 43 37 36 41 44 40 40 48 47 37 31 26 25 28 31 29 28 26 23 21 19 17 21 26 26 29 33 31 28 28 27 26 27 25 18 13 14 15 16 14 11 11 13 13 12 12 13 13 12 12 13
44 35 30 35 40 40 40 40 39 38 39 46 50 43 32 34 39 39 40 46 47 40 35 30 28 28 27 25 24 19 18 18 20 20 24 29 31 34 35 29 25 27 27 26 27 26 19 14 13 14 16 17 14 13 14 14 15 14 13 13 11 11 13
49 44 40 40 40 39 39 38 37 37 35 38 45 48 43 38 36 39 43 41 34 33 35 34 31 26 23 28 29 22 21 25 27 27 29 34 36 37 33 26 25 28 28 28 27 25 20 16 14 14 16 19 17 15 15 15 16 15 14 13 12 12 14
48 47 42 40 36 35 37 38 37 36 36 36 39 44 51 50 43 41 44 42 34 31 31 31 31 31 27 28 31 26 26 30 33 34 35 34 35 38 35 27 27 30 31 31 29 26 23 19 17 16 17 20 19 17 16 17 17 16 15 14 13 13 14
47 45 39 35 32 32 33 34 36 36 34 35 38 41 47 52 52 51 50 46 42 40 34 29 32 34 31 30 35 32 29 32 34 36 37 36 37 38 34 30 31 33 34 33 31 29 26 23 20 18 19 21 20 18 18 18 18 17 17 15 13 14 15
46 45 42 35 32 32 31 29 31 34 34 34 38 41 44 46 49 52 51 48 48 48 44 38 33 30 29 35 41 39 33 32 33 36 39 42 43 40 33 31 33 35 36 36 35 33 29 25 24 22 21 22 21 19 18 19 19 18 18 17 15 14 15
42 45 47 43 38 33 30 28 30 31 31 31 32 38 42 41 41 44 48 50 51 52 49 46 42 34 30 33 38 39 37 34 32 36 40 40 42 43 39 35 35 36 39 40 39 36 33 29 26 25 24 23 21 20 19 19 20 19 19 18 16 14 15
45 43 42 43 46 43 36 32 33 32 30 28 32 36 38 40 40 41 44 49 53 53 50 48 46 43 39 37 34 31 33 34 31 34 38 37 36 38 37 36 37 40 42 43 41 38 36 33 29 27 26 25 23 21 20 20 21 21 19 18 17 16 16
51 44 36 35 41 44 43 41 38 35 34 32 34 39 38 38 40 39 39 42 46 46 45 44 46 47 45 45 42 35 33 36 35 34 37 38 36 34 35 36 38 41 42 43 42 40 38 37 33 29 28 27 25 23 21 21 22 22 21 19 18 18 18
52 47 40 35 33 37 46 50 47 40 37 39 41 40 33 30 34 37 39 41 40 38 38 40 41 41 41 43 47 47 43 39 36 35 37 39 38 38 39 38 38 41 42 43 43 42 41 39 35 31 30 28 25 23 22 22 23 24 22 20 19 19 19
52 50 46 41 39 43 48 47 44 43 39 37 38 35 28 28 33 34 34 37 38 38 40 43 43 41 38 39 44 50 51 48 44 40 38 38 39 42 44 41 37 39 41 43 45 44 42 40 36 34 33 30 26 25 25 24 24 25 23 20 19 20 20
53 52 48 47 50 51 48 41 39 42 42 41 40 36 33 34 34 31 30 32 35 37 40 44 46 48 47 46 47 50 52 54 55 49 39 35 37 41 44 44 41 37 37 40 43 44 43 42 38 37 36 32 28 27 27 25 25 26 23 19 18 19 20
54 53 50 52 54 51 45 43 40 38 39 42 43 43 42 39 37 37 38 37 36 37 38 37 36 39 43 47 53 56 52 52 55 54 47 43 44 45 45 46 45 42 37 34 36 40 44 44 41 39 39 36 31 28 28 27 27 28 25 20 20 20 20
50 53 51 51 52 49 46 45 41 38 40 42 42 44 44 40 41 47 48 45 43 42 39 35 31 31 34 37 42 50 54 53 55 57 55 53 53 55 54 52 50 50 47 40 35 38 43 44 42 42 43 40 34 29 29 29 30 30 26 23 22 21 21
39 46 49 50 52 52 48 44 42 43 45 43 43 45 43 41 47 53 52 49 47 44 41 40 38 36 35 36 36 37 42 46 49 54 58 59 59 60 60 59 57 56 55 50 43 41 43 44 43 44 47 44 37 31 31 32 32 30 28 26 25 23 22
36 42 48 50 52 51 48 46 44 43 43 42 41 41 38 39 44 48 48 50 50 45 42 44 44 41 40 42 36 28 28 35 37 39 46 54 58 59 59 57 54 54 56 53 47 44 44 44 44 45 48 47 40 33 32 33 33 31 29 28 27 26 26
40 41 45 48 48 46 45 45 44 43 44 45 44 41 39 39 39 39 42 48 50 45 43 45 47 45 44 43 34 25 27 33 31 28 32 40 48 54 54 48 45 51 57 53 46 44 43 43 44 46 48 49 43 35 34 35 34 32 32 31 30 30 30
46 42 42 46 48 47 45 44 45 48 48 46 45 45 44 43 39 34 35 43 48 46 43 45 48 47 45 43 38 35 32 29 27 29 32 36 41 47 47 41 41 50 56 49 43 44 44 44 46 49 50 49 43 37 36 36 35 34 34 33 33 34 34
51 46 43 44 46 47 45 45 47 49 48 46 46 47 45 42 38 35 33 36 41 42 40 42 46 47 46 43 42 43 38 30 30 36 37 37 39 41 42 41 44 49 48 41 39 44 45 46 49 50 50 48 43 39 38 37 37 36 36 34 35 37 37
53 49 47 46 46 45 45 46 48 48 48 49 48 45 43 41 39 38 36 35 37 38 38 39 41 44 46 43 43 46 43 38 39 41 40 40 42 43 43 44 47 47 42 36 38 44 47 49 50 50 49 46 43 40 39 39 39 38 36 36 37 39 40
57 53 52 48 43 43 45 47 48 48 48 47 43 40 42 44 43 40 38 38 39 39 40 41 39 39 41 40 40 44 45 44 46 45 41 41 44 46 44 42 43 43 40 39 43 47 49 51 51 49 47 45 43 41 41 41 40 39 38 38 40 42 43
58 56 54 48 43 44 48 48 47 46 45 44 42 40 42 43 40 38 38 39 40 40 41 42 41 39 40 40 42 44 44 43 43 42 37 37 42 44 42 41 43 44 42 44 49 51 52 52 51 49 47 45 44 43 42 41 40 39 40 42 43 44 44
57 57 56 53 50 50 50 49 49 48 46 44 42 42 42 40 37 36 37 38 39 40 40 40 40 40 41 42 42 43 41 39 39 39 36 38 43 44 42 44 47 47 47 50 54 55 54 53 51 50 48 47 45 44 42 40 39 40 43 44 45 46 46
55 56 56 56 56 54 51 51 52 53 50 45 40 39 39 39 38 37 36 37 39 39 38 38 39 40 42 43 41 40 38 37 39 40 38 39 45 47 46 47 50 50 51 54 56 56 55 54 52 51 49 46 44 43 42 42 43 44 45 46 46 47 48
54 54 54 56 57 58 56 53 51 51 49 45 42 39 37 38 39 38 36 37 38 38 37 39 40 40 42 44 43 41 39 39 40 40 39 41 46 48 48 50 53 51 50 52 55 55 55 54 52 51 49 47 45 45 45 46 46 46 46 46 46 47 48
55 55 54 54 56 58 59 56 51 48 45 43 42 41 39 39 39 38 35 35 36 37 37 39 41 42 42 43 42 40 39 39 40 40 40 42 45 46 48 52 54 51 49 49 49 50 52 53 52 51 50 50 49 48 47 47 46 46 46 46 46 47 48
54 55 54 53 55 57 57 54 50 48 45 43 41 39 39 40 40 37 35 34 35 35 37 39 42 43 41 40 41 41 40 41 42 42 43 45 47 46 49 53 52 48 45 43 41 41 45 49 51 52 52 52 51 50 48 47 47 47 47 47 47 48 49
52 54 54 53 53 54 52 48 45 44 44 43 42 41 40 40 40 38 36 35 34 34 36 38 41 42 41 40 40 39 37 38 39 39 41 45 48 47 47 49 48 42 38 36 35 37 40 43 46 48 49 50 50 49 49 48 48 48 48 49 49 49 50
52 53 53 51 49 48 47 45 43 42 42 41 41 42 42 41 40 39 37 36 34 34 35 37 39 40 40 40 40 36 31 30 30 28 27 29 32 33 34 35 36 35 34 35 37 38 39 40 42 44 45 47 49 49 49 49 50 50 50 51 51 51 52
51 50 49 49 47 46 45 43 41 42 42 41 40 40 41 40 40 40 38 35 34 34 35 37 40 40 39 39 39 37 33 31 30 26 22 20 22 24 25 26 28 30 33 36 38 39 40 39 40 42 44 46 48 49 50 51 51 52 52 52 52 53 53

ECMWFFLT2_500_spd_033.txt.gz
Wind_Speed
30 31 27 27 32 34 33 34 34 34 37 41 41 40 38 37 42 44 41 37 31 29 30 28 25 20 17 22 26 26 25 26 28 25 20 19 22 22 21 19 18 18 19 19 18 18 18 16 16 16 16 17 16 16 17 18 19 18 18 19 20 21 22
31 30 29 29 31 33 33 35 32 29 33 40 43 42 38 37 42 45 43 38 33 33 30 22 23 23 19 22 25 24 27 29 28 26 22 20 23 24 22 19 17 16 18 20 20 21 20 18 17 17 17 16 15 14 15 16 17 17 18 19 20 21 22
31 30 32 33 34 34 33 32 30 30 33 38 43 46 43 41 44 44 41 38 35 35 31 21 19 25 26 27 26 24 29 32 28 25 24 20 21 24 21 18 16 14 16 20 22 23 22 20 20 19 19 18 16 14 14 14 14 15 15 16 17 18 19
33 34 37 38 38 34 30 29 32 33 33 34 39 44 46 45 46 43 38 37 35 31 27 23 22 25 26 24 25 24 26 31 29 25 24 19 19 21 19 17 18 15 15 17 20 22 22 22 22 21 20 19 17 15 14 13 13 12 12 13 14 15 16
35 39 42 41 38 35 31 31 35 37 35 35 36 38 42 45 47 46 41 42 41 33 28 28 26 26 25 23 26 27 27 30 29 25 23 21 20 21 19 18 19 17 15 16 18 21 22 22 23 23 21 19 18 16 14 12 12 11 10 11 12 13 14
39 41 40 39 38 35 33 33 33 35 37 38 39 39 40 41 45 45 44 47 48 39 32 29 27 26 25 23 26 27 28 30 30 28 29 29 27 22 20 20 18 16 16 16 17 20 23 23 23 23 23 20 18 16 13 12 11 10 10 10 11 11 12
41 38 33 37 40 36 36 37 34 32 37 41 42 41 39 39 42 43 43 48 52 46 35 26 22 24 26 27 28 26 26 29 30 31 34 34 30 24 22 23 20 17 17 18 19 20 23 25 24 24 23 20 18 17 15 13 11 10 10 10 10 11 11
40 38 32 32 37 37 38 41 39 35 37 42 44 41 36 37 41 41 40 45 51 48 38 24 17 20 25 29 31 28 28 30 32 34 36 33 28 28 28 27 24 21 20 22 23 21 22 27 25 22 21 20 18 17 16 14 12 10 10 10 10 11 11
44 43 40 35 35 39 42 43 42 39 37 38 42 42 37 36 37 35 35 40 42 43 39 31 22 20 25 28 28 26 27 29 31 33 32 29 27 31 32 28 25 24 24 25 24 21 22 27 26 23 22 21 19 18 16 14 13 12 11 10 10 11 11
51 50 49 46 42 41 44 44 41 38 36 36 39 44 43 43 41 35 34 37 37 39 39 33 29 27 27 30 28 26 26 28 30 31 29 27 29 31 30 27 26 26 26 27 25 23 23 27 29 27 24 22 21 20 18 16 15 14 13 10 10 11 12
53 50 48 46 43 40 43 46 44 39 37 34 35 43 48 47 45 42 39 39 37 36 34 29 28 32 32 33 34 30 29 31 32 31 29 29 28 28 28 27 27 27 27 28 28 27 26 27 31 30 27 25 25 23 20 18 17 16 15 12 10 10 12
49 48 46 44 45 44 42 44 44 42 40 37 36 41 44 45 48 47 43 39 36 31 27 24 23 26 30 32 34 34 33 33 30 28 27 27 26 27 29 28 27 26 27 30 31 31 30 29 31 32 30 28 27 25 23 21 19 18 16 14 12 11 12
47 46 45 45 47 44 37 37 42 43 41 39 38 37 36 39 47 47 44 43 39 33 32 31 25 23 26 27 30 34 34 31 29 28 28 27 25 26 29 29 29 31 32 34 36 36 34 31 31 31 30 28 27 27 25 23 21 20 18 17 14 12 12
45 45 46 47 47 45 38 34 37 39 40 39 40 39 35 35 39 41 42 46 47 41 37 37 33 29 29 29 31 35 34 30 30 31 32 31 28 27 29 30 33 37 38 38 39 37 36 34 31 30 29 27 28 29 27 25 23 22 20 18 16 13 12
39 41 44 47 49 47 45 38 33 35 39 37 36 35 32 32 35 37 39 43 47 48 45 41 36 33 32 34 35 36 34 30 30 32 33 35 35 33 34 37 40 42 42 41 40 37 36 36 34 32 30 30 30 31 30 27 25 24 22 20 17 15 13
40 39 40 43 47 49 50 48 42 38 35 30 27 28 28 29 32 32 35 39 41 44 45 44 42 38 38 38 38 38 35 30 32 37 38 38 40 41 42 43 44 44 44 43 41 37 35 37 38 35 33 33 33 32 31 29 27 27 25 22 19 17 16
52 43 36 34 36 45 56 58 52 46 38 30 27 29 30 30 27 24 27 30 32 33 36 39 45 47 45 44 42 38 37 35 35 39 41 41 43 44 45 45 44 44 45 45 43 41 39 39 40 38 35 35 34 33 31 31 30 29 28 24 21 19 18
59 48 39 35 35 44 55 56 51 48 45 38 36 36 35 31 28 26 25 25 27 30 32 34 41 45 45 46 46 42 39 39 40 41 41 41 44 46 46 45 46 46 48 48 47 47 46 44 42 40 37 36 36 35 34 33 32 31 30 28 24 22 21
60 52 46 45 46 46 45 43 45 48 47 41 41 44 43 38 32 26 24 25 27 29 33 38 41 43 42 44 47 48 45 43 42 42 41 39 40 43 44 44 44 44 45 48 48 47 45 43 42 41 40 39 39 38 37 36 34 32 31 30 27 25 24
60 56 53 53 54 48 40 38 43 46 45 45 47 47 44 41 38 32 27 28 29 29 33 38 41 42 43 43 45 49 51 51 49 46 43 40 39 40 42 45 44 41 42 45 45 43 40 39 39 41 42 41 42 41 38 37 36 34 33 32 29 28 26
61 59 56 58 58 52 44 43 45 45 45 48 50 49 47 45 45 43 39 37 35 32 34 36 38 40 41 41 42 45 48 53 56 54 49 46 44 41 41 44 44 42 43 45 44 42 41 40 40 43 45 45 45 44 40 38 37 36 35 33 32 30 27
55 58 58 59 60 58 53 50 48 45 44 45 47 49 51 51 51 50 48 46 42 38 37 38 40 40 40 39 37 39 43 48 54 57 56 54 51 46 43 46 47 46 47 48 47 46 44 43 43 44 46 47 47 45 42 39 39 39 37 36 34 33 29
42 50 57 61 63 62 58 53 50 48 47 47 46 45 48 51 53 54 54 54 50 45 42 43 44 44 43 42 39 38 40 43 47 53 55 55 55 54 49 48 50 51 51 52 53 51 47 45 44 45 47 48 47 45 42 41 40 40 40 39 37 36 33
41 43 49 56 60 60 58 54 51 51 53 53 49 47 47 49 50 54 56 56 53 50 47 47 48 48 47 46 43 40 41 41 41 42 44 45 49 56 58 56 55 56 56 56 59 59 54 47 44 44 44 44 43 42 42 43 42 40 41 41 40 39 36
46 44 42 45 49 52 53 51 48 48 51 53 52 51 51 51 49 50 52 52 52 51 50 48 48 50 51 49 47 44 43 43 40 38 38 40 41 47 57 63 64 62 60 60 64 66 60 54 50 48 47 46 45 45 46 48 46 42 42 42 43 43 39
45 46 42 40 43 47 48 46 45 46 46 48 51 53 53 53 52 50 49 48 49 50 51 49 47 50 54 53 50 48 45 43 42 41 41 43 42 41 44 54 66 70 66 65 67 68 65 61 59 58 56 54 52 53 53 53 50 47 46 44 46 46 41
45 45 45 43 43 46 45 42 43 46 46 47 50 53 53 53 53 53 50 47 45 44 45 46 46 50 56 57 54 52 49 46 46 47 47 46 46 44 40 41 54 68 72 69 68 68 68 67 64 63 61 58 55 55 54 54 52 51 50 47 46 46 43
50 48 48 48 45 43 41 40 42 46 49 49 49 51 52 53 52 51 47 43 42 41 40 40 42 46 54 58 58 55 52 50 49 50 52 51 48 47 44 39 42 55 69 74 73 71 70 69 68 65 61 60 59 55 52 53 54 51 50 49 48 47 44
56 54 51 51 48 43 40 40 42 46 49 50 49 48 49 51 50 48 44 41 41 42 42 42 42 43 47 53 56 56 55 53 51 51 55 56 53 50 49 45 42 45 57 70 76 76 74 73 70 66 60 58 58 54 50 53 54 52 51 51 49 47 45
58 59 55 51 50 50 47 44 44 47 49 50 50 49 48 47 45 45 44 42 43 44 44 45 44 44 44 46 49 52 54 55 54 53 56 59 58 56 53 52 50 48 50 56 63 65 65 64 63 61 57 55 54 52 51 54 54 51 51 52 50 48 46
59 59 56 50 49 53 56 53 50 50 52 52 51 48 47 46 43 42 42 43 44 44 45 45 45 45 44 43 44 47 51 53 54 54 55 58 61 61 59 56 56 55 53 54 58 58 55 54 56 57 56 55 55 54 53 55 55 52 51 53 52 49 45
63 60 57 53 50 52 57 59 56 53 53 54 51 45 41 41 40 38 39 42 44 44 45 45 45 45 45 45 47 47 48 50 52 52 52 53 56 60 60 58 57 56 53 55 60 60 53 48 50 55 56 55 54 55 55 55 53 51 51 52 52 49 45
63 60 55 54 55 55 55 57 57 54 52 51 49 44 40 39 38 37 38 41 43 43 43 44 45 45 46 47 49 49 49 50 51 51 51 51 51 53 55 56 57 57 54 54 58 57 49 44 46 54 59 56 50 49 53 56 53 48 50 51 48 45 44
56 58 53 51 56 60 59 57 54 52 51 50 48 45 42 40 38 37 37 39 40 42 43 43 42 43 44 45 46 47 48 49 50 51 51 51 48 47 48 51 54 56 56 55 54 52 49 47 47 53 60 60 52 45 47 53 54 51 51 51 47 43 42
50 50 46 44 49 55 60 62 58 52 49 48 47 44 41 38 37 37 37 38 39 41 42 42 41 42 43 43 43 43 45 48 50 50 49 48 46 44 44 47 50 52 54 55 56 57 56 51 47 49 55 58 55 47 43 46 50 50 48 45 41 40 41
50 46 42 43 47 49 52 59 62 58 53 50 47 45 43 41 38 37 36 38 40 41 41 40 40 41 42 43 43 43 45 48 49 48 47 46 45 43 43 44 45 47 52 56 59 61 59 52 46 45 48 52 52 48 43 41 42 41 39 35 34 37 40
48 44 40 43 49 49 46 49 54 55 55 51 47 46 47 46 43 40 36 36 39 41 41 40 40 40 40 41 42 43 44 45 45 45 45 45 44 43 41 41 41 41 44 49 52 51 51 49 46 45 46 46 47 45 41 39 36 32 31 33 36 39 41

ECMWFFLT2_500_spd_036.txt.gz
Wind_Speed
28 26 25 26 29 30 28 29 33 32 31 36 42 44 44 46 51 49 47 49 48 44 42 38 34 33 31 30 31 29 23 20 20 21 19 17 17 21 24 23 23 23 23 24 25 23 22 23 22 20 19 19 18 19 19 19 20 20 21 22 22 22 23
28 26 26 29 30 30 31 32 30 28 28 33 39 43 44 46 50 50 46 47 47 44 43 39 36 35 31 28 28 28 25 24 24 21 18 16 14 17 23 24 23 22 23 25 24 23 22 23 22 20 19 19 18 18 18 18 19 19 21 23 24 25 24
28 27 30 33 34 33 33 31 29 29 31 33 37 42 44 45 48 48 45 45 46 44 43 39 35 34 29 24 25 28 28 27 24 19 15 14 14 15 19 21 21 22 24 25 23 21 22 24 23 20 19 18 17 17 18 18 19 20 21 23 24 25 25
31 32 36 39 37 35 33 33 33 33 34 34 35 37 40 41 44 44 41 42 43 42 41 39 36 33 26 22 25 29 29 23 18 14 11 12 14 13 16 18 20 22 24 24 23 22 24 24 22 20 18 17 16 17 18 19 20 20 21 21 22 24 24
36 40 42 40 37 35 36 36 37 36 35 36 36 37 38 39 41 40 38 39 37 36 38 38 37 33 25 20 24 29 27 21 17 15 12 13 15 13 13 15 17 21 23 23 22 23 24 24 22 20 18 16 16 17 18 19 20 20 20 20 21 22 23
42 43 41 39 37 36 36 36 36 35 35 35 37 39 39 40 41 39 36 35 32 31 34 35 36 33 25 21 24 28 27 24 21 18 14 15 15 13 13 13 13 18 21 22 23 24 25 24 22 19 17 16 16 16 17 19 19 19 19 20 21 21 22
43 41 39 39 38 37 36 36 35 34 35 36 37 39 39 38 39 38 36 35 29 25 27 29 31 30 27 25 25 27 28 26 24 20 16 17 18 16 16 16 14 17 22 24 24 25 26 24 20 18 17 18 16 16 17 18 18 18 18 19 21 21 21
41 40 40 41 40 39 38 39 37 36 37 36 36 36 35 36 38 37 38 38 28 18 20 25 28 29 29 29 28 28 29 28 26 22 19 19 20 20 20 20 18 18 23 27 27 28 27 23 19 16 17 18 18 17 17 18 17 17 18 19 20 20 20
46 45 45 46 46 44 43 42 39 38 37 36 36 36 36 37 39 38 40 41 31 19 17 23 31 34 33 32 31 30 31 30 26 23 20 19 20 22 22 24 23 22 25 30 30 29 27 23 18 15 16 19 20 19 18 18 18 18 18 19 19 19 20
54 52 51 50 49 47 45 45 42 40 39 38 38 39 41 42 42 39 40 42 35 25 20 22 31 37 36 34 34 33 32 32 28 23 21 21 22 24 26 26 26 24 26 32 33 31 27 23 19 17 18 20 21 21 20 20 20 20 20 20 20 20 20
55 52 49 47 47 47 46 46 44 42 40 39 40 42 44 44 41 40 41 40 36 31 26 23 26 34 37 34 33 34 34 33 30 25 22 22 23 25 28 28 26 24 24 29 33 32 29 26 22 20 21 22 23 25 23 22 21 21 21 21 21 21 21
54 50 45 43 44 47 46 45 45 43 39 39 42 45 46 43 41 42 40 37 37 34 30 26 24 26 34 33 30 31 32 33 33 30 27 28 27 26 26 27 26 26 24 26 31 32 30 28 25 23 22 23 25 27 26 24 24 23 23 22 22 21 21
55 51 46 44 44 46 47 46 45 45 41 40 42 43 42 41 42 41 37 35 37 35 31 30 25 21 31 36 31 26 26 29 33 34 33 32 29 26 27 28 28 28 26 27 33 33 31 30 28 26 25 24 25 28 29 28 26 25 25 24 23 21 21
54 51 49 47 46 48 49 48 47 46 44 43 42 39 37 37 37 35 33 34 37 36 32 31 28 23 29 38 37 30 27 27 29 32 32 28 25 26 28 28 27 28 27 29 34 35 33 33 32 29 27 25 24 26 30 31 29 27 27 26 24 22 21
53 51 49 48 48 50 51 49 48 48 46 44 43 40 37 36 35 33 34 36 37 35 33 32 32 30 28 34 39 38 35 31 30 31 29 25 26 27 26 25 26 27 27 30 35 36 35 35 33 30 28 26 25 25 28 31 31 29 28 27 25 23 22
53 49 46 47 48 50 53 52 50 50 48 46 44 42 38 34 33 34 37 39 36 32 31 33 36 35 32 32 37 42 41 37 36 34 29 29 33 31 27 27 30 30 30 33 36 37 37 35 33 31 30 28 27 27 27 29 30 29 29 28 27 25 24
54 49 44 42 43 47 55 59 54 49 47 46 44 39 34 30 28 29 33 35 32 29 31 34 37 37 36 34 35 40 43 41 38 36 34 36 40 40 37 34 32 31 33 35 37 37 37 36 34 33 33 32 30 29 28 28 30 31 31 30 29 28 28
55 48 43 41 43 50 59 62 57 50 46 45 43 38 35 33 28 27 30 30 29 31 33 35 37 39 39 37 36 40 44 43 40 38 38 41 44 45 45 42 37 35 36 36 35 35 35 35 35 35 37 37 36 33 31 31 33 35 34 32 32 31 31
57 48 43 45 50 55 59 59 58 56 49 43 41 39 39 40 36 33 32 31 31 33 34 34 36 41 43 42 40 42 44 45 44 43 42 44 46 47 47 45 41 39 38 36 34 34 35 36 37 40 41 42 41 40 38 36 36 36 36 35 34 34 33
62 51 43 48 54 54 53 54 57 60 56 48 43 42 43 45 43 41 39 37 35 35 35 34 36 39 45 47 46 46 46 47 48 48 45 44 46 46 46 45 43 40 39 38 37 37 38 38 40 44 45 45 45 45 44 41 39 39 39 38 37 37 36
69 58 44 46 54 51 48 51 54 58 61 56 48 44 44 46 45 44 43 42 39 38 36 35 36 36 39 44 48 50 50 49 50 51 49 48 47 47 47 46 45 44 43 42 42 42 43 44 45 47 47 47 48 49 48 46 43 42 43 43 40 38 38
72 66 51 46 54 54 50 51 51 52 59 61 53 46 45 46 46 46 46 45 43 41 37 35 36 36 34 36 41 46 49 52 53 52 51 51 50 50 50 49 47 47 47 47 46 46 48 50 51 50 49 49 51 51 48 46 44 43 44 44 41 40 40
67 71 63 53 54 58 55 52 47 45 55 62 60 53 49 49 49 49 48 46 43 41 40 38 37 36 35 35 37 39 40 45 52 55 55 54 53 52 52 51 48 47 48 49 49 50 52 53 53 53 51 50 50 50 47 46 45 43 43 42 41 41 41
58 66 68 60 57 59 60 55 45 42 50 60 64 60 55 54 55 53 50 48 45 43 43 42 40 38 37 37 38 39 37 37 42 50 55 57 57 56 55 54 52 50 51 52 52 53 54 54 53 53 52 50 49 49 48 48 47 46 43 42 42 43 44
50 57 62 59 59 62 64 61 52 44 47 56 64 66 62 59 59 56 52 50 49 48 47 46 44 42 41 40 40 40 40 39 38 41 46 53 58 60 60 58 57 55 55 56 56 56 56 55 53 53 54 54 53 51 50 50 50 49 46 44 44 46 47
48 52 54 54 58 63 65 65 59 52 49 52 58 65 66 65 63 59 56 55 53 52 51 50 49 47 45 44 43 41 41 42 41 40 41 45 51 56 60 62 62 61 59 60 59 58 57 56 55 55 56 57 56 55 55 55 52 50 50 49 49 50 50
43 48 52 52 55 61 65 66 64 59 54 52 54 57 60 62 62 59 58 58 57 57 56 54 53 53 50 48 47 46 45 44 43 43 43 44 45 48 52 56 59 60 60 61 62 62 62 61 60 59 59 59 58 57 58 57 55 54 55 55 54 53 53
37 45 54 55 56 61 64 66 67 65 60 57 55 54 53 55 57 57 56 56 57 57 57 57 57 56 55 53 51 50 49 48 46 44 44 45 46 47 48 49 50 50 51 51 54 59 64 68 68 67 65 64 62 61 60 59 58 58 58 59 59 57 56
37 44 54 55 57 62 65 66 68 68 66 62 60 58 57 56 55 54 54 53 53 53 51 50 52 54 55 56 54 52 50 50 49 48 47 47 47 48 50 51 50 49 48 47 47 49 55 62 68 72 73 72 70 68 66 64 64 63 62 63 63 61 58
42 46 53 52 51 58 64 66 66 67 66 64 63 63 63 63 60 57 54 53 54 55 53 50 49 50 53 54 53 52 50 50 50 50 50 50 51 51 52 53 53 52 51 50 49 48 49 53 58 64 70 73 75 75 74 72 70 69 68 68 67 64 61
44 47 52 50 47 53 61 63 63 62 60 60 60 58 59 60 60 57 55 53 53 53 53 53 51 50 50 50 50 51 50 50 50 51 51 51 53 55 56 56 56 55 54 54 53 51 50 50 51 54 59 63 67 71 74 75 75 75 75 74 73 71 68
45 47 50 51 49 51 55 59 60 57 53 53 55 53 52 53 54 52 50 50 50 48 48 49 50 49 48 49 50 50 51 51 51 50 49 49 51 53 55 57 58 58 58 58 58 56 55 53 51 51 52 55 58 61 63 67 71 75 78 79 76 76 75
47 46 47 51 53 51 48 52 57 54 48 47 49 48 47 49 50 51 49 47 47 47 45 45 47 49 49 48 49 50 51 52 52 50 49 49 49 50 52 54 56 58 59 59 60 60 59 56 55 55 56 58 60 61 61 61 63 68 76 78 73 71 73
49 46 45 48 53 52 47 47 52 52 48 47 46 43 44 46 47 47 47 46 45 46 45 44 45 47 48 49 50 50 51 51 52 51 50 50 50 50 50 51 52 54 54 55 56 57 57 56 57 59 62 62 62 63 65 65 63 63 69 74 71 66 66
53 47 45 46 49 51 49 48 47 44 43 46 47 43 42 45 46 44 42 43 44 44 43 44 45 45 46 48 49 50 50 50 50 50 49 49 49 50 50 50 51 51 52 52 52 53 53 54 56 57 58 59 60 62 64 65 66 66 68 71 71 67 63
57 49 46 46 48 49 48 48 46 41 37 40 44 44 43 44 46 46 43 40 41 42 42 42 44 45 45 46 47 48 48 48 48 48 47 48 49 48 49 50 50 50 50 50 50 50 50 51 52 52 52 52 54 57 60 61 61 64 67 68 67 63 58
58 53 46 44 47 49 48 46 45 41 39 41 44 45 45 46 48 49 48 44 43 43 43 42 42 42 43 44 44 45 45 45 45 45 44 46 47 47 47 48 48 48 48 47 47 48 48 48 47 47 49 52 52 55 59 62 62 62 63 65 67 64 55